GW1125 Weather Reports


Display with metric or nautical units.
time (UTC)temp
F
wind
direction
speed
MPH
gust
MPH
rain 1hr
in
rain 24hr
in
rain mn
in
humidity
%
barometer
mb
20260506002617 66 62 1.0 2.0 0.00 0.00 0.00 67 1013.9
20260506002117 66 136 1.0 2.0 0.00 0.00 0.00 68 1013.9
20260506001637 65 103 0.0 1.0 0.00 0.00 0.00 71 1013.9
20260506001117 64 88 0.0 1.0 0.00 0.00 0.00 72 1013.9
20260506000617 64 48 2.0 6.0 0.00 0.00 0.00 70 1014.2
20260506000117 64 59 2.0 4.0 0.00 0.00 0.00 71 1014.1
20260505235618 65 74 1.0 3.0 0.00 0.00 0.00 69 1014.2
20260505235118 65 286 0.0 1.0 0.00 0.00 0.00 69 1014.2
20260505234617 65 99 1.0 2.0 0.00 0.00 0.00 69 1014.2
20260505234117 66 86 0.0 2.0 0.00 0.00 0.00 69 1014.2
20260505233617 65 87 0.0 1.0 0.00 0.00 0.00 69 1014.4
20260505233117 65 85 1.0 3.0 0.00 0.00 0.00 69 1014.2
20260505232617 65 77 1.0 2.0 0.00 0.00 0.00 69 1014.3
20260505232117 65 51 3.0 6.0 0.00 0.00 0.00 69 1014.3
20260505231617 66 61 1.0 2.0 0.00 0.00 0.00 67 1014.3
20260505231117 66 101 0.0 1.0 0.00 0.00 0.00 66 1014.4
20260505230637 65 45 1.0 3.0 0.00 0.00 0.00 70 1014.5
20260505230117 66 0.0 0.0 0.00 0.00 0.00 69 1014.7
20260505225617 64 130 1.0 2.0 0.00 0.00 0.00 70 1014.6
20260505225117 64 85 1.0 2.0 0.00 0.00 0.00 72 1014.6
20260505224617 63 0.0 0.0 0.00 0.00 0.00 72 1014.7
20260505224117 63 0.0 0.0 0.00 0.00 0.00 74 1014.8
20260505223617 62 74 2.0 2.0 0.00 0.00 0.00 75 1014.9
20260505223117 62 43 2.0 3.0 0.00 0.00 0.00 75 1014.9
20260505222618 62 45 2.0 3.0 0.00 0.00 0.00 74 1014.9
20260505222118 62 93 0.0 2.0 0.00 0.00 0.00 74 1015.0
20260505221617 62 97 0.0 1.0 0.00 0.00 0.00 75 1015.0
20260505221117 61 0.0 0.0 0.00 0.00 0.00 77 1015.0
20260505220617 62 57 3.0 6.0 0.00 0.00 0.00 75 1015.2
20260505220137 62 94 0.0 1.0 0.00 0.00 0.00 75 1015.2
20260505215617 62 0.0 0.0 0.00 0.00 0.00 76 1015.2
20260505215117 61 0.0 0.0 0.00 0.00 0.00 76 1015.3
20260505214616 61 0.0 0.0 0.00 0.00 0.00 76 1015.3
20260505214118 61 0.0 0.0 0.00 0.00 0.00 76 1015.3
20260505213617 61 0.0 0.0 0.00 0.00 0.00 76 1015.3
20260505213118 61 105 0.0 1.0 0.00 0.00 0.00 75 1015.2
20260505212617 60 0.0 0.0 0.00 0.00 0.00 77 1015.3
20260505212117 61 0.0 0.0 0.00 0.00 0.00 77 1015.4
20260505211637 60 0.0 0.0 0.00 0.00 0.00 78 1015.4
20260505211117 60 0.0 0.0 0.00 0.00 0.00 77 1015.4
20260505210637 60 66 1.0 2.0 0.00 0.00 0.00 76 1015.4
20260505210136 61 110 0.0 1.0 0.00 0.00 0.00 76 1015.4
20260505205617 60 97 0.0 1.0 0.00 0.00 0.00 77 1015.5
20260505205117 60 0.0 0.0 0.00 0.00 0.00 78 1015.5
20260505204617 60 0.0 0.0 0.00 0.00 0.00 78 1015.6
20260505204117 59 0.0 0.0 0.00 0.00 0.00 79 1015.5
20260505203617 60 0.0 0.0 0.00 0.00 0.00 78 1015.6
20260505203137 59 0.0 0.0 0.00 0.00 0.00 79 1015.6
20260505202617 60 0.0 0.0 0.00 0.00 0.00 79 1015.6
20260505202117 59 0.0 0.0 0.00 0.00 0.00 79 1015.5
20260505201617 59 106 0.0 1.0 0.00 0.00 0.00 80 1015.3
20260505201116 59 0.0 0.0 0.00 0.00 0.00 80 1015.4
20260505200617 59 0.0 0.0 0.00 0.00 0.00 78 1015.4
20260505200118 59 125 1.0 2.0 0.00 0.00 0.00 79 1015.5
20260505195618 59 0.0 0.0 0.00 0.00 0.00 79 1015.6
20260505195117 59 161 1.0 2.0 0.00 0.00 0.00 79 1015.7
20260505194617 59 113 0.0 1.0 0.00 0.00 0.00 81 1015.5
20260505194117 59 0.0 0.0 0.00 0.00 0.00 81 1015.5
20260505193617 59 0.0 0.0 0.00 0.00 0.00 81 1015.5
20260505193117 58 103 0.0 1.0 0.00 0.00 0.00 81 1015.5
20260505192616 58 132 1.0 3.0 0.00 0.00 0.00 80 1015.5
20260505192117 59 0.0 0.0 0.00 0.00 0.00 81 1015.4
20260505191617 59 99 0.0 1.0 0.00 0.00 0.00 81 1015.5
20260505191117 58 0.0 0.0 0.00 0.00 0.00 82 1015.5
20260505190618 58 105 0.0 1.0 0.00 0.00 0.00 82 1015.6
20260505190137 58 116 0.0 1.0 0.00 0.00 0.00 82 1015.5
20260505185617 58 0.0 0.0 0.00 0.00 0.00 83 1015.6
20260505185137 57 114 0.0 1.0 0.00 0.00 0.00 83 1015.5
20260505184637 57 119 0.0 1.0 0.00 0.00 0.00 83 1015.6
20260505184117 57 0.0 0.0 0.00 0.00 0.00 83 1015.5
20260505183617 57 113 0.0 1.0 0.00 0.00 0.00 83 1015.6
20260505183117 57 114 1.0 2.0 0.00 0.00 0.00 83 1015.5
20260505182618 57 0.0 0.0 0.00 0.00 0.00 83 1015.4
20260505182117 57 0.0 0.0 0.00 0.00 0.00 84 1015.5
20260505181637 57 0.0 0.0 0.00 0.00 0.00 84 1015.4
20260505181117 57 0.0 0.0 0.00 0.00 0.00 84 1015.5
20260505180617 57 0.0 0.0 0.00 0.00 0.00 83 1015.5
20260505180117 57 0.0 0.0 0.00 0.00 0.00 84 1015.6
20260505175617 57 0.0 0.0 0.00 0.00 0.00 84 1015.4
20260505175118 56 0.0 0.0 0.00 0.00 0.00 84 1015.4
20260505174637 56 0.0 0.0 0.00 0.00 0.00 84 1015.5
20260505174137 56 0.0 0.0 0.00 0.00 0.00 85 1015.5
20260505173617 56 0.0 0.0 0.00 0.00 0.00 84 1015.4
20260505173117 56 0.0 0.0 0.00 0.00 0.00 84 1015.3
20260505172617 56 0.0 0.0 0.00 0.00 0.00 84 1015.5
20260505172117 56 0.0 0.0 0.00 0.00 0.00 85 1015.3
20260505171617 56 0.0 0.0 0.00 0.00 0.00 84 1015.4
20260505171136 56 0.0 0.0 0.00 0.00 0.00 84 1015.4
20260505170618 56 108 1.0 2.0 0.00 0.00 0.00 85 1015.3
20260505170118 56 109 0.0 1.0 0.00 0.00 0.00 85 1015.2
20260505165618 56 0.0 0.0 0.00 0.00 0.00 85 1015.3
20260505165117 56 0.0 0.0 0.00 0.00 0.00 85 1015.2
20260505164657 56 109 0.0 1.0 0.00 0.00 0.00 85 1015.2
20260505164117 56 0.0 0.0 0.00 0.00 0.00 86 1015.3
20260505163617 56 104 0.0 1.0 0.00 0.00 0.00 86 1015.3
20260505163117 56 0.0 0.0 0.00 0.00 0.00 86 1015.1
20260505162617 56 112 0.0 2.0 0.00 0.00 0.00 86 1015.2
20260505162116 55 0.0 0.0 0.00 0.00 0.00 86 1015.1
20260505161638 55 0.0 0.0 0.00 0.00 0.00 86 1015.1
20260505161118 55 0.0 0.0 0.00 0.00 0.00 86 1015.1
20260505160637 55 130 1.0 2.0 0.00 0.00 0.00 86 1015.2
20260505160117 55 121 0.0 1.0 0.00 0.00 0.00 87 1015.1
20260505153117 55 0.0 0.0 0.00 0.00 0.00 88 1015.0
20260505152617 55 145 2.0 3.0 0.00 0.00 0.00 87 1015.0
20260505152117 55 0.0 0.0 0.00 0.00 0.00 88 1015.3
20260505151617 55 0.0 0.0 0.00 0.00 0.00 87 1015.0
20260505151157 55 0.0 0.0 0.00 0.00 0.00 88 1015.0
20260505150617 55 179 0.0 3.0 0.00 0.00 0.00 88 1014.9
20260505150117 55 126 0.0 1.0 0.00 0.00 0.00 88 1015.0
20260505140617 54 0.0 0.0 0.00 0.00 0.00 90 1014.5
20260505140137 54 0.0 0.0 0.00 0.00 0.00 89 1014.4
20260505130117 54 152 0.0 2.0 0.00 0.00 0.00 90 1013.9
20260505124617 54 0.0 0.0 0.00 0.00 0.00 90 1013.8
20260505124117 54 114 0.0 1.0 0.00 0.00 0.00 90 1013.8
20260505123617 54 0.0 0.0 0.00 0.00 0.00 90 1013.8
20260505123117 54 0.0 0.0 0.00 0.00 0.00 90 1013.8
20260505122617 54 0.0 0.0 0.00 0.00 0.00 90 1013.8
20260505122117 54 0.0 0.0 0.00 0.00 0.00 90 1013.7
20260505121617 54 0.0 0.0 0.00 0.00 0.00 91 1013.7
20260505121137 54 0.0 0.0 0.00 0.00 0.00 91 1013.6
20260505120617 54 0.0 0.0 0.00 0.00 0.00 91 1013.7
20260505120117 54 0.0 0.0 0.00 0.00 0.00 91 1013.6
20260505115617 54 0.0 0.0 0.00 0.00 0.00 91 1013.5
20260505115117 54 0.0 0.0 0.00 0.00 0.00 90 1013.6
20260505114617 54 0.0 0.0 0.00 0.00 0.00 90 1013.5
20260505114117 54 0.0 0.0 0.00 0.00 0.00 91 1013.7
20260505113618 54 0.0 0.0 0.00 0.00 0.00 90 1013.6
20260505113117 54 97 0.0 1.0 0.00 0.00 0.00 90 1013.5
20260505112617 54 0.0 0.0 0.00 0.00 0.00 91 1013.6
20260505112117 54 0.0 0.0 0.00 0.00 0.00 91 1013.6
20260505111617 54 112 0.0 1.0 0.00 0.00 0.00 91 1013.6
20260505111117 54 0.0 0.0 0.00 0.00 0.00 91 1013.4
20260505110617 54 0.0 0.0 0.00 0.00 0.00 91 1013.4
20260505110118 54 0.0 0.0 0.00 0.00 0.00 91 1013.5
20260505102116 54 0.0 0.0 0.00 0.00 0.00 91 1013.2
20260505101618 54 108 0.0 1.0 0.00 0.00 0.00 91 1013.2
20260505101137 54 0.0 0.0 0.00 0.00 0.00 91 1013.0
20260505100617 54 0.0 0.0 0.00 0.00 0.00 91 1013.2
20260505100117 54 108 0.0 1.0 0.00 0.00 0.00 91 1013.1
20260505095617 54 0.0 0.0 0.00 0.00 0.00 92 1013.0
20260505095157 54 0.0 0.0 0.00 0.00 0.00 92 1012.9
20260505094617 54 117 1.0 2.0 0.00 0.00 0.00 92 1012.9
20260505094117 54 0.0 0.0 0.00 0.00 0.00 93 1012.9
20260505093617 53 0.0 0.0 0.00 0.00 0.00 93 1012.8
20260505093137 53 0.0 0.0 0.00 0.00 0.00 93 1012.8
20260505092618 53 0.0 0.0 0.00 0.00 0.00 94 1012.7
20260505092117 53 0.0 0.0 0.00 0.00 0.00 94 1012.9
20260505091617 53 0.0 0.0 0.00 0.00 0.00 94 1012.9
20260505091117 53 0.0 0.0 0.00 0.00 0.00 94 1012.7
20260505090617 52 0.0 0.0 0.00 0.00 0.00 94 1012.7
20260505090117 52 0.0 0.0 0.00 0.00 0.00 94 1012.7
20260505085617 52 0.0 0.0 0.00 0.00 0.00 94 1012.6
20260505085117 52 0.0 0.0 0.00 0.00 0.00 94 1012.6
20260505084638 52 0.0 0.0 0.00 0.00 0.00 94 1012.6
20260505084117 52 0.0 0.0 0.00 0.00 0.00 94 1012.7
20260505083617 52 0.0 0.0 0.00 0.00 0.00 94 1012.6
20260505083117 53 0.0 0.0 0.00 0.00 0.00 94 1012.5
20260505082617 52 0.0 0.0 0.00 0.00 0.00 94 1012.7
20260505082117 53 0.0 0.0 0.00 0.00 0.00 94 1012.6
20260505081617 53 0.0 0.0 0.00 0.00 0.00 93 1012.6
20260505081117 53 0.0 0.0 0.00 0.00 0.00 93 1012.5
20260505080617 53 0.0 0.0 0.00 0.00 0.00 94 1012.6
20260505080118 52 0.0 0.0 0.00 0.00 0.00 94 1012.5
20260505075617 52 0.0 0.0 0.00 0.00 0.00 93 1012.6
20260505075117 53 0.0 0.0 0.00 0.00 0.00 93 1012.5
20260505074617 53 0.0 0.0 0.00 0.00 0.00 93 1012.5
20260505074117 53 0.0 0.0 0.00 0.00 0.00 92 1012.4
20260505073617 53 0.0 0.0 0.00 0.00 0.00 92 1012.2
20260505073117 53 0.0 0.0 0.00 0.00 0.00 92 1012.1
20260505072617 53 0.0 0.0 0.00 0.00 0.00 92 1012.0
20260505072117 53 0.0 0.0 0.00 0.00 0.00 92 1012.1
20260505071637 53 0.0 0.0 0.00 0.00 0.00 91 1012.1
20260505071117 54 0.0 0.0 0.00 0.00 0.00 91 1012.1
20260505070617 54 0.0 0.0 0.00 0.00 0.00 91 1011.9
20260505070117 54 0.0 0.0 0.00 0.00 0.00 91 1011.9
20260505065657 54 0.0 0.0 0.00 0.00 0.00 90 1011.9
20260505065117 54 0.0 0.0 0.00 0.00 0.00 90 1011.7
20260505064617 55 0.0 0.0 0.00 0.00 0.00 89 1011.8
20260505064117 55 0.0 0.0 0.00 0.00 0.00 89 1011.6
20260505063616 55 0.0 0.0 0.00 0.00 0.00 88 1011.5
20260505063117 55 0.0 0.0 0.00 0.00 0.00 88 1011.6
20260505062618 55 0.0 0.0 0.00 0.00 0.00 88 1011.5
20260505062117 55 0.0 0.0 0.00 0.00 0.00 87 1011.4
20260505061617 55 0.0 0.0 0.00 0.00 0.00 87 1011.4
20260505061137 56 0.0 0.0 0.00 0.00 0.00 87 1011.4
20260505060617 56 0.0 0.0 0.00 0.00 0.00 86 1011.3
20260505060117 56 0.0 0.0 0.00 0.00 0.00 86 1011.3
20260505055637 56 0.0 0.0 0.00 0.00 0.00 85 1011.1
20260505055117 57 0.0 0.0 0.00 0.00 0.00 84 1011.1
20260505054618 57 0.0 0.0 0.00 0.00 0.00 84 1011.1
20260505054117 57 0.0 0.0 0.00 0.00 0.00 83 1011.0
20260505053617 57 0.0 0.0 0.00 0.00 0.00 83 1011.0
20260505053118 58 0.0 0.0 0.00 0.00 0.00 82 1010.9
20260505052617 58 134 1.0 2.0 0.00 0.00 0.00 82 1011.0
20260505052117 58 0.0 0.0 0.00 0.00 0.00 82 1010.7
20260505051637 58 0.0 0.0 0.00 0.00 0.00 82 1010.8
20260505051117 58 0.0 0.0 0.00 0.00 0.00 82 1010.6
20260505050637 58 0.0 0.0 0.00 0.00 0.00 81 1010.5
20260505050118 59 0.0 0.0 0.00 0.00 0.00 80 1010.5
20260505041637 61 0.0 0.0 0.00 0.00 0.00 74 1010.0
20260505041118 62 0.0 0.0 0.00 0.00 0.00 74 1009.7
20260505040617 62 0.0 0.0 0.00 0.00 0.00 73 1009.6
20260505040117 62 0.0 0.0 0.00 0.00 0.00 72 1009.5
20260505035617 63 0.0 0.0 0.00 0.00 0.00 72 1009.5
20260505035117 63 0.0 0.0 0.00 0.00 0.00 71 1009.4
20260505034617 64 83 0.0 1.0 0.00 0.00 0.00 70 1009.5
20260505034117 64 104 0.0 1.0 0.00 0.00 0.00 70 1009.3
20260505033637 64 0.0 0.0 0.00 0.00 0.00 70 1009.2
20260505033136 65 0.0 0.0 0.00 0.00 0.00 69 1009.1
20260505032618 65 0.0 0.0 0.00 0.00 0.00 68 1009.1
20260505032118 65 0.0 0.0 0.00 0.00 0.00 67 1009.0
20260505031618 66 0.0 0.0 0.00 0.00 0.00 65 1008.9
20260505031117 67 0.0 0.0 0.00 0.00 0.00 65 1008.9
20260505030617 67 0.0 0.0 0.00 0.00 0.00 64 1008.7
20260505030117 68 0.0 0.0 0.00 0.00 0.00 62 1008.8
20260505025617 68 77 1.0 2.0 0.00 0.00 0.00 62 1008.5
20260505025117 69 0.0 0.0 0.00 0.00 0.00 62 1008.4
20260505024617 69 112 0.0 1.0 0.00 0.00 0.00 60 1008.5
20260505024118 70 0.0 0.0 0.00 0.00 0.00 58 1008.4
20260505023617 70 0.0 0.0 0.00 0.00 0.00 59 1008.4
20260505023118 71 102 2.0 3.0 0.00 0.00 0.00 57 1008.2
20260505022617 71 32 2.0 2.0 0.00 0.00 0.00 56 1008.3
20260505022117 71 73 2.0 2.0 0.00 0.00 0.00 57 1008.2
20260505021637 72 83 0.0 1.0 0.00 0.00 0.00 56 1008.1
20260505021117 72 35 2.0 3.0 0.00 0.00 0.00 56 1008.1
20260505020617 73 107 0.0 1.0 0.00 0.00 0.00 56 1008.0
20260505020117 73 79 2.0 3.0 0.00 0.00 0.00 55 1008.2
20260505015617 74 86 1.0 4.0 0.00 0.00 0.00 55 1008.0
20260505015117 74 62 0.0 1.0 0.00 0.00 0.00 54 1008.0
20260505014638 74 115 1.0 2.0 0.00 0.00 0.00 53 1008.0
20260505014117 75 65 0.0 1.0 0.00 0.00 0.00 52 1008.0
20260505013617 76 345 1.0 3.0 0.00 0.00 0.00 50 1008.0
20260505013117 75 90 1.0 1.0 0.00 0.00 0.00 51 1008.0
20260505012617 76 73 1.0 2.0 0.00 0.00 0.00 51 1008.0
20260505012117 77 25 2.0 4.0 0.00 0.00 0.00 49 1008.0
20260505011617 76 0.0 0.0 0.00 0.00 0.00 50 1008.1
20260505011138 76 76 1.0 2.0 0.00 0.00 0.00 49 1008.1
20260505010657 76 54 1.0 2.0 0.00 0.00 0.00 49 1008.1
20260505010117 76 94 1.0 2.0 0.00 0.00 0.00 49 1008.1
20260505005617 77 88 1.0 3.0 0.00 0.00 0.00 48 1008.2
20260505005117 77 52 0.0 2.0 0.00 0.00 0.00 48 1008.2
20260505004617 77 36 2.0 4.0 0.00 0.00 0.00 48 1008.1
20260505004117 76 42 1.0 3.0 0.00 0.00 0.00 48 1008.1
20260505003617 76 108 2.0 3.0 0.00 0.00 0.00 48 1008.1
20260505003117 77 88 1.0 3.0 0.00 0.00 0.00 47 1008.2